| time (UTC) | temp F | wind direction | speed MPH | gust MPH | rain 1hr in | rain 24hr in | rain mn in | humidity % | barometer mb |
| 20260509114404 | 75 | 155 | 0.0 | 0.0 | 0.00 | 0.03 | 0.00 | 91 | 1010.2 |
| 20260509113404 | 74 | 155 | 0.0 | 0.0 | 0.00 | 0.03 | 0.00 | 91 | 1010.1 |
| 20260509112904 | 74 | 155 | 0.0 | 0.0 | 0.00 | 0.03 | 0.00 | 91 | 1010.0 |
| 20260509112404 | 74 | 155 | 0.0 | 0.0 | 0.00 | 0.03 | 0.00 | 91 | 1010.1 |
| 20260509111904 | 74 | 155 | 0.0 | 0.0 | 0.00 | 0.03 | 0.00 | 91 | 1010.1 |
| 20260509111403 | 74 | 155 | 0.0 | 0.0 | 0.00 | 0.03 | 0.00 | 91 | 1010.0 |
| 20260509110904 | 74 | 155 | 0.0 | 0.0 | 0.00 | 0.03 | 0.00 | 91 | 1009.8 |
| 20260509110405 | 74 | 155 | 0.0 | 0.0 | 0.00 | 0.03 | 0.00 | 91 | 1009.6 |
| 20260509105404 | 74 | 155 | 0.0 | 0.0 | 0.00 | 0.03 | 0.00 | 91 | 1009.4 |
| 20260509104905 | 74 | 155 | 0.0 | 0.0 | 0.00 | 0.03 | 0.00 | 91 | 1009.3 |
| 20260509104405 | 74 | 155 | 0.0 | 0.0 | 0.00 | 0.03 | 0.00 | 91 | 1009.4 |
| 20260509103904 | 74 | 155 | 0.0 | 0.0 | 0.00 | 0.03 | 0.00 | 91 | 1009.4 |
| 20260509103404 | 74 | 155 | 0.0 | 0.0 | 0.00 | 0.03 | 0.00 | 91 | 1009.5 |
| 20260509102904 | 74 | 155 | 0.0 | 0.0 | 0.00 | 0.03 | 0.00 | 91 | 1009.7 |
| 20260509101904 | 74 | 155 | 0.0 | 0.0 | 0.00 | 0.03 | 0.00 | 91 | 1009.4 |
| 20260509101405 | 74 | 155 | 0.0 | 0.0 | 0.00 | 0.03 | 0.00 | 91 | 1009.5 |
| 20260509100905 | 74 | 155 | 0.0 | 0.0 | 0.00 | 0.03 | 0.00 | 90 | 1009.7 |
| 20260509100404 | 74 | 155 | 0.0 | 0.0 | 0.00 | 0.03 | 0.00 | 90 | 1009.7 |
| 20260509095904 | 74 | 155 | 0.0 | 0.0 | 0.00 | 0.03 | 0.00 | 90 | 1009.4 |
| 20260509095404 | 74 | 155 | 0.0 | 0.0 | 0.00 | 0.03 | 0.00 | 90 | 1009.4 |
| 20260509094903 | 74 | 155 | 0.0 | 0.0 | 0.00 | 0.03 | 0.00 | 90 | 1009.2 |
| 20260509094405 | 74 | 155 | 0.0 | 0.0 | 0.00 | 0.04 | 0.00 | 90 | 1009.2 |
| 20260509093904 | 74 | 155 | 0.0 | 0.0 | 0.00 | 0.04 | 0.00 | 90 | 1009.2 |
| 20260509093404 | 74 | 155 | 0.0 | 0.0 | 0.00 | 0.04 | 0.00 | 90 | 1009.2 |
| 20260509092904 | 74 | 155 | 0.0 | 0.0 | 0.00 | 0.04 | 0.00 | 90 | 1009.2 |
| 20260509092405 | 74 | 155 | 0.0 | 0.0 | 0.00 | 0.04 | 0.00 | 90 | 1009.1 |
| 20260509091904 | 73 | 155 | 0.0 | 0.0 | 0.00 | 0.04 | 0.00 | 90 | 1009.0 |
| 20260509091404 | 73 | 155 | 0.0 | 0.0 | 0.00 | 0.04 | 0.00 | 90 | 1008.9 |
| 20260509090905 | 73 | 155 | 0.0 | 0.0 | 0.00 | 0.04 | 0.00 | 90 | 1009.0 |
| 20260509090405 | 73 | 155 | 0.0 | 0.0 | 0.00 | 0.04 | 0.00 | 90 | 1009.0 |
| 20260509085405 | 73 | 155 | 0.0 | 0.0 | 0.00 | 0.04 | 0.00 | 90 | 1009.0 |
| 20260509084904 | 74 | 155 | 0.0 | 0.0 | 0.00 | 0.04 | 0.00 | 90 | 1009.1 |
| 20260509084405 | 74 | 155 | 0.0 | 0.0 | 0.00 | 0.04 | 0.00 | 90 | 1009.0 |
| 20260509083904 | 74 | 155 | 0.0 | 0.0 | 0.00 | 0.04 | 0.00 | 90 | 1009.0 |
| 20260509083404 | 74 | 155 | 0.0 | 0.0 | 0.00 | 0.04 | 0.00 | 90 | 1009.1 |
| 20260509082904 | 74 | 155 | 0.0 | 0.0 | 0.00 | 0.04 | 0.00 | 90 | 1009.2 |
| 20260509082405 | 74 | 155 | 0.0 | 0.0 | 0.00 | 0.04 | 0.00 | 90 | 1009.1 |
| 20260509081904 | 74 | 155 | 0.0 | 0.0 | 0.00 | 0.04 | 0.00 | 90 | 1009.2 |
| 20260509081403 | 74 | 155 | 0.0 | 0.0 | 0.00 | 0.04 | 0.00 | 89 | 1009.2 |
| 20260509080904 | 74 | 155 | 0.0 | 0.0 | 0.00 | 0.04 | 0.00 | 89 | 1009.3 |
| 20260509080404 | 74 | 155 | 0.0 | 0.0 | 0.00 | 0.04 | 0.00 | 89 | 1009.3 |
| 20260509075905 | 74 | 155 | 0.0 | 0.0 | 0.00 | 0.04 | 0.00 | 89 | 1009.4 |
| 20260509075404 | 74 | 155 | 0.0 | 0.0 | 0.00 | 0.04 | 0.00 | 89 | 1009.5 |
| 20260509074904 | 74 | 155 | 0.0 | 0.0 | 0.00 | 0.04 | 0.00 | 89 | 1009.6 |
| 20260509074404 | 74 | 155 | 0.0 | 0.0 | 0.00 | 0.04 | 0.00 | 89 | 1009.6 |
| 20260509073903 | 74 | 155 | 0.0 | 0.0 | 0.00 | 0.04 | 0.00 | 89 | 1009.7 |
| 20260509073403 | 74 | 155 | 0.0 | 0.0 | 0.00 | 0.04 | 0.00 | 89 | 1009.7 |
| 20260509072905 | 74 | 155 | 0.0 | 0.0 | 0.00 | 0.04 | 0.00 | 89 | 1009.7 |
| 20260509072405 | 74 | 155 | 0.0 | 0.0 | 0.00 | 0.04 | 0.00 | 89 | 1009.8 |
| 20260509071905 | 74 | 155 | 0.0 | 0.0 | 0.00 | 0.04 | 0.00 | 89 | 1009.8 |
| 20260509071404 | 74 | 155 | 0.0 | 0.0 | 0.00 | 0.04 | 0.00 | 89 | 1009.8 |
| 20260509070404 | 74 | 155 | 0.0 | 0.0 | 0.00 | 0.04 | 0.00 | 89 | 1009.8 |
| 20260509065904 | 74 | 155 | 0.0 | 0.0 | 0.00 | 0.04 | 0.00 | 89 | 1009.6 |
| 20260509065404 | 74 | 155 | 0.0 | 0.0 | 0.00 | 0.04 | 0.00 | 89 | 1009.6 |
| 20260509064404 | 75 | 155 | 0.0 | 0.0 | 0.00 | 0.04 | 0.00 | 89 | 1009.5 |
| 20260509063904 | 75 | 155 | 0.0 | 0.0 | 0.00 | 0.04 | 0.00 | 89 | 1009.6 |
| 20260509063404 | 75 | 155 | 0.0 | 0.0 | 0.00 | 0.04 | 0.00 | 89 | 1009.6 |
| 20260509062904 | 75 | 155 | 0.0 | 0.0 | 0.00 | 0.04 | 0.00 | 89 | 1009.7 |
| 20260509061904 | 75 | 155 | 0.0 | 0.0 | 0.00 | 0.04 | 0.00 | 89 | 1010.0 |
| 20260509061405 | 75 | 155 | 0.0 | 0.0 | 0.00 | 0.04 | 0.00 | 89 | 1009.9 |
| 20260509060905 | 75 | 155 | 0.0 | 0.0 | 0.00 | 0.04 | 0.00 | 89 | 1009.8 |
| 20260509055904 | 76 | 155 | 0.0 | 0.0 | 0.00 | 0.04 | 0.00 | 89 | 1009.8 |
| 20260509055404 | 76 | 155 | 0.0 | 2.0 | 0.00 | 0.04 | 0.00 | 89 | 1009.8 |
| 20260509054905 | 76 | 155 | 0.0 | 2.0 | 0.00 | 0.04 | 0.00 | 89 | 1009.9 |
| 20260509054404 | 76 | 155 | 1.0 | 2.0 | 0.00 | 0.04 | 0.00 | 89 | 1009.9 |
| 20260509053403 | 76 | 154 | 0.0 | 2.0 | 0.00 | 0.04 | 0.00 | 89 | 1010.0 |
| 20260509052404 | 76 | 154 | 1.0 | 3.0 | 0.00 | 0.04 | 0.00 | 89 | 1010.0 |
| 20260509051904 | 76 | 155 | 1.0 | 3.0 | 0.00 | 0.04 | 0.00 | 89 | 1010.0 |
| 20260509051403 | 76 | 155 | 0.0 | 3.0 | 0.00 | 0.04 | 0.00 | 89 | 1010.1 |
| 20260509050904 | 76 | 155 | 1.0 | 3.0 | 0.00 | 0.04 | 0.00 | 89 | 1010.2 |
| 20260509050405 | 76 | 155 | 1.0 | 3.0 | 0.00 | 0.04 | 0.00 | 89 | 1010.2 |
| 20260509045405 | 76 | 154 | 1.0 | 3.0 | 0.00 | 0.04 | 0.04 | 89 | 1010.3 |
| 20260509044905 | 76 | 154 | 1.0 | 5.0 | 0.00 | 0.04 | 0.04 | 89 | 1010.3 |
| 20260509044404 | 76 | 154 | 2.0 | 6.0 | 0.00 | 0.04 | 0.04 | 89 | 1010.3 |
| 20260509043904 | 76 | 153 | 2.0 | 6.0 | 0.00 | 0.04 | 0.04 | 89 | 1010.4 |
| 20260509043403 | 76 | 166 | 1.0 | 5.0 | 0.00 | 0.04 | 0.04 | 89 | 1010.3 |
| 20260509041405 | 76 | 151 | 1.0 | 3.0 | 0.00 | 0.04 | 0.04 | 89 | 1010.4 |
| 20260509040905 | 76 | 151 | 1.0 | 3.0 | 0.00 | 0.04 | 0.04 | 89 | 1010.2 |
| 20260509040403 | 76 | 150 | 1.0 | 3.0 | 0.00 | 0.04 | 0.04 | 89 | 1010.2 |
| 20260509034404 | 76 | 136 | 1.0 | 3.0 | 0.00 | 0.04 | 0.04 | 89 | 1009.7 |
| 20260509033905 | 75 | 145 | 0.0 | 3.0 | 0.00 | 0.04 | 0.04 | 89 | 1009.8 |
| 20260509033404 | 75 | 146 | 0.0 | 7.0 | 0.00 | 0.04 | 0.04 | 89 | 1009.9 |
| 20260509032904 | 75 | 146 | 3.0 | 7.0 | 0.00 | 0.04 | 0.04 | 89 | 1009.7 |
| 20260509032405 | 75 | 141 | 1.0 | 3.0 | 0.00 | 0.04 | 0.04 | 89 | 1009.8 |
| 20260509031903 | 75 | 140 | 1.0 | 3.0 | 0.00 | 0.04 | 0.04 | 89 | 1009.9 |
| 20260509031404 | 75 | 139 | 2.0 | 3.0 | 0.00 | 0.04 | 0.04 | 89 | 1009.7 |
| 20260509030404 | 75 | 130 | 1.0 | 3.0 | 0.00 | 0.04 | 0.04 | 89 | 1009.7 |
| 20260509025904 | 75 | 125 | 2.0 | 3.0 | 0.00 | 0.04 | 0.04 | 89 | 1009.7 |
| 20260509025403 | 75 | 117 | 1.0 | 3.0 | 0.00 | 0.04 | 0.04 | 88 | 1009.5 |
| 20260509024904 | 75 | 102 | 0.0 | 3.0 | 0.00 | 0.04 | 0.04 | 89 | 1009.6 |
| 20260509024404 | 75 | 102 | 1.0 | 3.0 | 0.00 | 0.04 | 0.04 | 88 | 1009.8 |
| 20260509023904 | 75 | 92 | 1.0 | 3.0 | 0.00 | 0.04 | 0.04 | 88 | 1009.0 |
| 20260509023403 | 75 | 68 | 1.0 | 5.0 | 0.00 | 0.04 | 0.04 | 88 | 1009.4 |
| 20260509022904 | 75 | 66 | 0.0 | 5.0 | 0.00 | 0.04 | 0.04 | 88 | 1009.4 |
| 20260509022404 | 75 | 75 | 1.0 | 3.0 | 0.00 | 0.04 | 0.04 | 88 | 1009.4 |
| 20260509021904 | 75 | 73 | 1.0 | 3.0 | 0.00 | 0.04 | 0.04 | 88 | 1009.4 |
| 20260509020405 | 75 | 137 | 0.0 | 3.0 | 0.00 | 0.04 | 0.04 | 88 | 1009.2 |
| 20260509015904 | 75 | 135 | 1.0 | 3.0 | 0.00 | 0.04 | 0.04 | 88 | 1009.0 |
| 20260509015405 | 75 | 135 | 1.0 | 7.0 | 0.00 | 0.04 | 0.04 | 88 | 1009.1 |
| 20260509014905 | 75 | 119 | 2.0 | 7.0 | 0.00 | 0.04 | 0.04 | 88 | 1009.0 |
| 20260509013905 | 75 | 133 | 1.0 | 8.0 | 0.00 | 0.04 | 0.04 | 88 | 1008.8 |
| 20260509013404 | 75 | 147 | 3.0 | 8.0 | 0.00 | 0.04 | 0.04 | 87 | 1009.1 |
| 20260509012903 | 75 | 119 | 2.0 | 8.0 | 0.00 | 0.04 | 0.04 | 87 | 1009.0 |
| 20260509012404 | 75 | 139 | 2.0 | 8.0 | 0.00 | 0.04 | 0.04 | 87 | 1009.1 |
| 20260509011903 | 75 | 122 | 2.0 | 6.0 | 0.00 | 0.04 | 0.04 | 87 | 1008.9 |
| 20260509011404 | 75 | 156 | 2.0 | 6.0 | 0.00 | 0.04 | 0.04 | 87 | 1009.1 |
| 20260509010904 | 75 | 152 | 1.0 | 7.0 | 0.00 | 0.04 | 0.04 | 87 | 1009.2 |
| 20260509010405 | 75 | 138 | 1.0 | 7.0 | 0.00 | 0.04 | 0.04 | 87 | 1009.3 |
| 20260509005904 | 75 | 127 | 2.0 | 7.0 | 0.00 | 0.04 | 0.04 | 87 | 1008.9 |
| 20260509005403 | 75 | 120 | 1.0 | 5.0 | 0.00 | 0.04 | 0.04 | 87 | 1009.1 |
| 20260509004904 | 75 | 123 | 2.0 | 7.0 | 0.00 | 0.04 | 0.04 | 87 | 1009.0 |
| 20260509003904 | 75 | 140 | 5.0 | 8.0 | 0.00 | 0.04 | 0.04 | 86 | 1009.0 |
| 20260509003405 | 75 | 128 | 2.0 | 5.0 | 0.00 | 0.04 | 0.04 | 86 | 1009.2 |
| 20260509002905 | 75 | 102 | 1.0 | 3.0 | 0.00 | 0.04 | 0.04 | 86 | 1009.1 |
| 20260509002405 | 75 | 62 | 2.0 | 5.0 | 0.00 | 0.04 | 0.04 | 86 | 1009.2 |
| 20260509001904 | 75 | 93 | 2.0 | 8.0 | 0.00 | 0.04 | 0.04 | 86 | 1009.1 |
| 20260509001404 | 75 | 95 | 3.0 | 8.0 | 0.00 | 0.04 | 0.04 | 86 | 1008.6 |
| 20260509000903 | 75 | 151 | 2.0 | 7.0 | 0.00 | 0.04 | 0.04 | 86 | 1008.6 |
| 20260509000403 | 75 | 135 | 2.0 | 7.0 | 0.00 | 0.04 | 0.04 | 85 | 1008.7 |
| 20260508235905 | 75 | 107 | 1.0 | 6.0 | 0.00 | 0.04 | 0.04 | 85 | 1008.9 |
| 20260508234904 | 75 | 131 | 3.0 | 7.0 | 0.00 | 0.04 | 0.04 | 85 | 1009.4 |
| 20260508234404 | 75 | 150 | 2.0 | 5.0 | 0.00 | 0.04 | 0.04 | 85 | 1009.5 |
| 20260508233903 | 75 | 131 | 2.0 | 7.0 | 0.00 | 0.04 | 0.04 | 85 | 1009.4 |
| 20260508233404 | 75 | 154 | 2.0 | 7.0 | 0.00 | 0.04 | 0.04 | 85 | 1009.4 |
| 20260508232904 | 75 | 147 | 3.0 | 7.0 | 0.00 | 0.04 | 0.04 | 85 | 1009.4 |
| 20260508231903 | 76 | 154 | 2.0 | 8.0 | 0.00 | 0.04 | 0.04 | 84 | 1009.0 |
| 20260508231403 | 76 | 148 | 3.0 | 7.0 | 0.00 | 0.04 | 0.04 | 84 | 1009.3 |
| 20260508230903 | 76 | 159 | 1.0 | 7.0 | 0.00 | 0.04 | 0.04 | 84 | 1009.2 |
| 20260508230405 | 76 | 164 | 2.0 | 8.0 | 0.00 | 0.04 | 0.04 | 84 | 1009.1 |
| 20260508225904 | 76 | 124 | 1.0 | 8.0 | 0.00 | 0.04 | 0.04 | 84 | 1009.0 |
| 20260508225404 | 76 | 123 | 3.0 | 8.0 | 0.00 | 0.04 | 0.04 | 84 | 1009.0 |
| 20260508223904 | 76 | 97 | 2.0 | 7.0 | 0.00 | 0.04 | 0.04 | 83 | 1008.9 |
| 20260508223404 | 76 | 108 | 3.0 | 7.0 | 0.00 | 0.04 | 0.04 | 83 | 1008.9 |
| 20260508222904 | 76 | 132 | 3.0 | 7.0 | 0.00 | 0.04 | 0.04 | 83 | 1009.1 |
| 20260508222404 | 76 | 127 | 3.0 | 7.0 | 0.00 | 0.04 | 0.04 | 83 | 1009.1 |
| 20260508221904 | 76 | 145 | 2.0 | 5.0 | 0.00 | 0.04 | 0.04 | 83 | 1009.2 |
| 20260508221404 | 76 | 148 | 1.0 | 5.0 | 0.00 | 0.04 | 0.04 | 83 | 1009.2 |
| 20260508220404 | 76 | 82 | 1.0 | 5.0 | 0.00 | 0.04 | 0.04 | 83 | 1009.3 |
| 20260508215904 | 76 | 84 | 2.0 | 5.0 | 0.00 | 0.04 | 0.04 | 83 | 1009.3 |
| 20260508215404 | 75 | 87 | 1.0 | 3.0 | 0.00 | 0.04 | 0.04 | 83 | 1009.4 |
| 20260508214905 | 75 | 156 | 3.0 | 3.0 | 0.00 | 0.04 | 0.04 | 83 | 1009.5 |
| 20260508214404 | 75 | 141 | 2.0 | 5.0 | 0.00 | 0.04 | 0.04 | 83 | 1009.5 |
| 20260508213404 | 75 | 137 | 2.0 | 5.0 | 0.00 | 0.04 | 0.04 | 83 | 1009.5 |
| 20260508212905 | 75 | 81 | 1.0 | 3.0 | 0.00 | 0.04 | 0.04 | 83 | 1009.6 |
| 20260508212404 | 75 | 81 | 1.0 | 3.0 | 0.00 | 0.04 | 0.04 | 83 | 1009.6 |
| 20260508211904 | 75 | 79 | 1.0 | 5.0 | 0.00 | 0.04 | 0.04 | 83 | 1009.5 |
| 20260508211404 | 75 | 72 | 2.0 | 7.0 | 0.00 | 0.04 | 0.04 | 83 | 1009.6 |
| 20260508210904 | 75 | 91 | 2.0 | 7.0 | 0.00 | 0.04 | 0.04 | 84 | 1009.5 |
| 20260508210405 | 75 | 134 | 2.0 | 8.0 | 0.00 | 0.04 | 0.04 | 83 | 1009.6 |
| 20260508205904 | 75 | 148 | 2.0 | 8.0 | 0.00 | 0.04 | 0.04 | 83 | 1009.8 |
| 20260508204904 | 75 | 118 | 1.0 | 8.0 | 0.00 | 0.04 | 0.04 | 83 | 1009.7 |
| 20260508204404 | 75 | 127 | 3.0 | 8.0 | 0.00 | 0.04 | 0.04 | 84 | 1009.7 |
| 20260508203904 | 75 | 120 | 3.0 | 7.0 | 0.00 | 0.04 | 0.04 | 84 | 1009.6 |
| 20260508203404 | 75 | 109 | 2.0 | 5.0 | 0.00 | 0.04 | 0.04 | 84 | 1009.8 |
| 20260508202904 | 75 | 138 | 1.0 | 3.0 | 0.00 | 0.04 | 0.04 | 85 | 1009.8 |
| 20260508202405 | 74 | 137 | 1.0 | 5.0 | 0.00 | 0.04 | 0.04 | 84 | 1010.1 |
| 20260508201904 | 75 | 158 | 1.0 | 7.0 | 0.00 | 0.04 | 0.04 | 85 | 1010.3 |
| 20260508200904 | 75 | 142 | 2.0 | 7.0 | 0.00 | 0.04 | 0.04 | 86 | 1010.2 |
| 20260508200404 | 74 | 145 | 1.0 | 5.0 | 0.00 | 0.04 | 0.04 | 86 | 1010.3 |
| 20260508195904 | 74 | 71 | 3.0 | 5.0 | 0.00 | 0.04 | 0.04 | 86 | 1010.4 |
| 20260508195405 | 74 | 108 | 0.0 | 5.0 | 0.00 | 0.04 | 0.04 | 87 | 1010.5 |
| 20260508194404 | 73 | 72 | 1.0 | 5.0 | 0.00 | 0.04 | 0.04 | 87 | 1010.7 |
| 20260508193904 | 73 | 142 | 1.0 | 5.0 | 0.00 | 0.04 | 0.04 | 87 | 1010.6 |
| 20260508192905 | 73 | 62 | 3.0 | 7.0 | 0.00 | 0.04 | 0.04 | 88 | 1010.5 |
| 20260508192405 | 72 | 156 | 2.0 | 6.0 | 0.00 | 0.04 | 0.04 | 88 | 1010.3 |
| 20260508191405 | 72 | 131 | 2.0 | 9.0 | 0.00 | 0.04 | 0.04 | 89 | 1010.5 |
| 20260508190904 | 72 | 125 | 4.0 | 9.0 | 0.00 | 0.04 | 0.04 | 89 | 1010.5 |
| 20260508190404 | 71 | 149 | 3.0 | 8.0 | 0.00 | 0.04 | 0.04 | 90 | 1010.4 |
| 20260508185905 | 71 | 111 | 3.0 | 8.0 | 0.00 | 0.04 | 0.04 | 89 | 1010.6 |
| 20260508185404 | 71 | 148 | 3.0 | 6.0 | 0.00 | 0.04 | 0.04 | 89 | 1010.6 |
| 20260508184904 | 70 | 96 | 3.0 | 7.0 | 0.00 | 0.04 | 0.04 | 89 | 1010.5 |
| 20260508184405 | 70 | 78 | 2.0 | 7.0 | 0.00 | 0.04 | 0.04 | 89 | 1010.8 |
| 20260508183905 | 70 | 84 | 2.0 | 5.0 | 0.01 | 0.04 | 0.04 | 89 | 1010.9 |
| 20260508183404 | 69 | 50 | 1.0 | 5.0 | 0.01 | 0.04 | 0.04 | 89 | 1011.1 |
| 20260508182905 | 69 | 50 | 1.0 | 5.0 | 0.01 | 0.04 | 0.04 | 89 | 1011.2 |
| 20260508182404 | 69 | 56 | 1.0 | 3.0 | 0.01 | 0.04 | 0.04 | 89 | 1011.3 |
| 20260508181404 | 69 | 16 | 2.0 | 5.0 | 0.01 | 0.04 | 0.04 | 89 | 1011.5 |
| 20260508180903 | 69 | 32 | 1.0 | 3.0 | 0.01 | 0.04 | 0.04 | 89 | 1011.6 |
| 20260508180405 | 69 | 64 | 2.0 | 6.0 | 0.01 | 0.04 | 0.04 | 88 | 1011.6 |
| 20260508175904 | 69 | 77 | 2.0 | 6.0 | 0.02 | 0.04 | 0.04 | 88 | 1011.7 |
| 20260508174905 | 69 | 77 | 1.0 | 3.0 | 0.02 | 0.04 | 0.04 | 88 | 1011.7 |
| 20260508173905 | 69 | 77 | 2.0 | 9.0 | 0.01 | 0.03 | 0.03 | 88 | 1011.8 |
| 20260508173405 | 69 | 84 | 2.0 | 9.0 | 0.01 | 0.03 | 0.03 | 88 | 1011.8 |
| 20260508172904 | 69 | 71 | 2.0 | 9.0 | 0.01 | 0.03 | 0.03 | 88 | 1011.8 |
| 20260508172404 | 70 | 71 | 3.0 | 9.0 | 0.02 | 0.03 | 0.03 | 88 | 1011.6 |
| 20260508171904 | 70 | 106 | 3.0 | 8.0 | 0.02 | 0.03 | 0.03 | 88 | 1011.5 |
| 20260508171404 | 70 | 73 | 3.0 | 8.0 | 0.02 | 0.03 | 0.03 | 88 | 1011.4 |
| 20260508170903 | 70 | 71 | 1.0 | 3.0 | 0.02 | 0.03 | 0.03 | 88 | 1011.7 |
| 20260508165904 | 70 | 65 | 1.0 | 3.0 | 0.01 | 0.02 | 0.02 | 87 | 1012.2 |
| 20260508165404 | 70 | 64 | 1.0 | 3.0 | 0.01 | 0.02 | 0.02 | 87 | 1012.4 |
| 20260508164904 | 70 | 65 | 1.0 | 3.0 | 0.01 | 0.02 | 0.02 | 87 | 1012.4 |
| 20260508164404 | 70 | 71 | 1.0 | 3.0 | 0.01 | 0.02 | 0.02 | 87 | 1012.4 |
| 20260508163904 | 70 | 70 | 1.0 | 5.0 | 0.01 | 0.02 | 0.02 | 87 | 1012.3 |
| 20260508163404 | 70 | 101 | 1.0 | 5.0 | 0.01 | 0.02 | 0.02 | 87 | 1012.4 |
| 20260508162903 | 70 | 82 | 2.0 | 5.0 | 0.01 | 0.02 | 0.02 | 87 | 1012.7 |
| 20260508162404 | 70 | 87 | 2.0 | 6.0 | 0.00 | 0.01 | 0.01 | 87 | 1012.9 |
| 20260508161904 | 70 | 34 | 2.0 | 6.0 | 0.00 | 0.01 | 0.01 | 87 | 1012.9 |
| 20260508161404 | 70 | 56 | 1.0 | 6.0 | 0.00 | 0.01 | 0.01 | 87 | 1012.9 |
| 20260508160404 | 70 | 50 | 2.0 | 6.0 | 0.00 | 0.01 | 0.01 | 88 | 1012.9 |
| 20260508155904 | 69 | 93 | 1.0 | 6.0 | 0.00 | 0.01 | 0.01 | 88 | 1012.7 |
| 20260508155405 | 69 | 72 | 2.0 | 6.0 | 0.00 | 0.01 | 0.01 | 88 | 1012.6 |
| 20260508154903 | 69 | 53 | 2.0 | 9.0 | 0.00 | 0.01 | 0.01 | 88 | 1013.0 |
| 20260508154404 | 69 | 55 | 3.0 | 9.0 | 0.00 | 0.01 | 0.01 | 88 | 1013.2 |
| 20260508153905 | 69 | 62 | 3.0 | 8.0 | 0.00 | 0.01 | 0.01 | 88 | 1013.3 |
| 20260508153404 | 69 | 4 | 3.0 | 8.0 | 0.00 | 0.01 | 0.01 | 88 | 1013.2 |
| 20260508152905 | 69 | 52 | 3.0 | 9.0 | 0.00 | 0.01 | 0.01 | 88 | 1012.9 |
| 20260508151905 | 69 | 61 | 1.0 | 5.0 | 0.00 | 0.01 | 0.01 | 89 | 1012.8 |
| 20260508151404 | 68 | 25 | 2.0 | 5.0 | 0.00 | 0.01 | 0.01 | 88 | 1012.7 |
| 20260508150904 | 68 | 48 | 2.0 | 8.0 | 0.00 | 0.01 | 0.01 | 88 | 1012.7 |
| 20260508150404 | 68 | 24 | 3.0 | 8.0 | 0.00 | 0.01 | 0.01 | 88 | 1012.7 |
| 20260508145904 | 68 | 74 | 2.0 | 7.0 | 0.00 | 0.01 | 0.01 | 88 | 1012.6 |
| 20260508145404 | 68 | 42 | 3.0 | 7.0 | 0.00 | 0.01 | 0.01 | 88 | 1012.8 |
| 20260508144905 | 68 | 37 | 3.0 | 7.0 | 0.00 | 0.01 | 0.01 | 88 | 1013.0 |
| 20260508144404 | 69 | 68 | 2.0 | 3.0 | 0.00 | 0.01 | 0.01 | 88 | 1013.2 |
| 20260508143904 | 69 | 71 | 2.0 | 3.0 | 0.00 | 0.01 | 0.01 | 88 | 1013.1 |
| 20260508143404 | 69 | 61 | 1.0 | 3.0 | 0.00 | 0.01 | 0.01 | 88 | 1013.2 |
| 20260508142904 | 69 | 61 | 3.0 | 3.0 | 0.00 | 0.01 | 0.01 | 88 | 1013.1 |
| 20260508142403 | 69 | 58 | 0.0 | 3.0 | 0.00 | 0.01 | 0.01 | 88 | 1013.2 |
| 20260508141904 | 68 | 65 | 1.0 | 3.0 | 0.00 | 0.01 | 0.01 | 88 | 1013.2 |
| 20260508141404 | 68 | 68 | 1.0 | 3.0 | 0.00 | 0.01 | 0.01 | 88 | 1013.3 |
| 20260508140904 | 68 | 71 | 0.0 | 2.0 | 0.00 | 0.01 | 0.01 | 88 | 1012.8 |
| 20260508135905 | 68 | 71 | 0.0 | 2.0 | 0.00 | 0.01 | 0.01 | 88 | 1012.7 |
| 20260508135404 | 68 | 71 | 1.0 | 2.0 | 0.00 | 0.01 | 0.01 | 88 | 1012.6 |
| 20260508134904 | 68 | 71 | 1.0 | 2.0 | 0.00 | 0.01 | 0.01 | 88 | 1012.8 |
| 20260508134405 | 68 | 71 | 1.0 | 3.0 | 0.00 | 0.01 | 0.01 | 88 | 1012.8 |
| 20260508133904 | 68 | 73 | 2.0 | 3.0 | 0.00 | 0.01 | 0.01 | 88 | 1012.8 |
| 20260508133404 | 68 | 73 | 1.0 | 2.0 | 0.00 | 0.01 | 0.01 | 88 | 1013.0 |
| 20260508131404 | 68 | 33 | 1.0 | 3.0 | 0.00 | 0.01 | 0.01 | 88 | 1012.9 |
| 20260508125903 | 68 | 43 | 2.0 | 5.0 | 0.00 | 0.01 | 0.01 | 88 | 1012.5 |
| 20260508125404 | 68 | 58 | 1.0 | 6.0 | 0.00 | 0.01 | 0.01 | 88 | 1012.5 |
| 20260508124904 | 68 | 79 | 2.0 | 6.0 | 0.00 | 0.01 | 0.01 | 88 | 1012.6 |
| 20260508124404 | 68 | 85 | 2.0 | 6.0 | 0.00 | 0.01 | 0.01 | 88 | 1012.7 |
| 20260508123904 | 68 | 23 | 2.0 | 6.0 | 0.00 | 0.01 | 0.01 | 88 | 1012.9 |
| 20260508123405 | 68 | 50 | 2.0 | 5.0 | 0.00 | 0.01 | 0.01 | 88 | 1013.0 |
| 20260508122905 | 68 | 338 | 3.0 | 5.0 | 0.00 | 0.01 | 0.01 | 88 | 1013.0 |
| 20260508122404 | 68 | 77 | 1.0 | 5.0 | 0.00 | 0.01 | 0.01 | 88 | 1012.9 |
| 20260508121904 | 68 | 13 | 2.0 | 5.0 | 0.00 | 0.01 | 0.01 | 88 | 1013.0 |
| 20260508121404 | 68 | 50 | 1.0 | 5.0 | 0.00 | 0.01 | 0.01 | 88 | 1012.8 |
| 20260508120904 | 68 | 39 | 3.0 | 5.0 | 0.00 | 0.01 | 0.01 | 88 | 1012.7 |
| 20260508120404 | 68 | 4 | 2.0 | 5.0 | 0.00 | 0.01 | 0.01 | 88 | 1012.6 |
| 20260508115903 | 68 | 4 | 2.0 | 5.0 | 0.00 | 0.01 | 0.01 | 88 | 1012.5 |
| 20260508115404 | 68 | 77 | 3.0 | 5.0 | 0.00 | 0.01 | 0.01 | 88 | 1012.4 |